Location: Desert Center
(33.7130°N, 115.4010°W)
Time: 08:55:11
(UTC-08:00)

Daily predictions for brighter satellites

Satellite Brightness Start Highest point End
(mag) Time Altitude Azimuth Time Altitude Azimuth Time Altitude Azimuth
Meteor 1-13 Rocket 4.3 16:52:10 10° S 16:57:39 66° E 17:03:17 10° NNE
Cosmos 2369 3.8 16:52:21 10° S 16:57:55 63° ESE 17:03:33 10° NNE
Cosmos 2278 3.8 16:52:56 10° S 16:58:28 60° ESE 17:04:05 10° NNE
Cosmos 1536 Rocket 3.9 16:54:41 10° SSE 16:58:50 45° E 17:02:59 10° NNE
Hubble Space Telescope 2.2 16:56:12 10° WSW 16:59:59 35° S 17:03:46 10° ESE
CZ-4 R/B 2.0 16:56:48 10° SE 17:00:15 32° ENE 17:03:46 10° N
Meteor 1-28 Rocket 3.3 16:58:43 10° NNE 17:02:27 60° E 17:06:10 10° S
IRAS Rocket 4.2 16:58:10 10° SSE 17:03:37 71° ENE 17:09:05 10° N
ATLAS 2AS CENTAUR R/B 3.9 16:57:55 10° SW 17:05:16 48° NW 17:13:04 10° NNE
Cosmos 2084 4.5 17:01:50 10° S 17:05:31 28° ESE 17:09:02 10° NE
CSL-04 Rocket 3.7 17:00:22 10° SSE 17:05:45 75° ENE 17:11:14 10° N
OAO 1 Rocket 4.5 17:01:21 10° W 17:06:43 81° N 17:12:03 10° E
Cosmos 158 Rocket 4.2 17:03:39 10° N 17:08:26 43° ENE 17:13:06 10° SE
ATLAS 3B R/B 2.7 17:03:03 10° NNW 17:09:30 51° NE 17:15:46 10° SE
Cosmos 1743 2.8 17:08:44 10° N 17:12:38 82° W 17:16:31 10° S
EO 1 Del DPAF 4.4 17:10:03 10° NE 17:13:10 23° E 17:16:16 10° SSE
DELTA 2 R/B (2) 4.5 17:12:01 10° SW 17:14:25 46° SSE 17:17:29 12° ENE
Cosmos 1697 Rocket 3.0 17:10:43 10° S 17:16:08 50° ESE 17:21:34 10° NNE
SKYMED 2 4.2 17:12:54 10° NNE 17:16:56 37° E 17:20:56 10° SSE
USA 215 3.3 17:11:44 10° ESE 17:18:09 61° NE 17:24:35 10° NW
Okean 2 4.4 17:16:55 10° SSE 17:20:19 25° E 17:23:43 10° NE
NOSS 3-4 (A) 3.5 17:20:37 10° SSW 17:26:45 67° ESE 17:33:02 10° NE
NOSS 3-4 (C) 3.5 17:20:44 10° SSW 17:26:50 66° ESE 17:33:07 10° NE
ISS -3.9 17:23:57 10° NW 17:27:13 67° NE 17:30:28 10° SE
ERS-2 3.1 17:26:36 10° SE 17:29:39 26° ENE 17:32:43 10° NNE
Landsat 4 3.7 17:26:45 10° NNE 17:30:33 67° ESE 17:34:19 10° S
Cosmos 2082 3.7 17:27:02 10° NNW 17:32:36 60° ENE 17:38:08 10° SSE
SPOT 3 Rocket 4.0 17:33:59 10° SE 17:38:43 37° ENE 17:43:26 10° N
Cosmos 1455 Rocket 4.0 17:35:08 10° NNW 17:39:23 50° W 17:43:35 10° SSW
Cosmos 2266 Rocket 3.9 17:35:48 10° N 17:41:56 82° E 17:48:07 10° S
Cosmos 2227 Rocket 2.3 17:38:37 10° NNW 17:44:18 83° WSW 17:49:55 10° SSE
YAOGAN 1 2.5 17:40:27 10° SSE 17:44:46 85° ENE 17:49:07 10° N
CZ-4 R/B 4.3 17:41:50 10° SSE 17:45:57 82° ENE 17:50:06 10° N
Ariane Rocket 4.1 17:41:54 10° S 17:46:45 48° W 17:51:38 10° NNW
MINOTAUR IV R/B 4.5 17:43:07 10° NNW 17:47:35 65° ENE 17:52:00 10° SSE
Delta 2 Rocket 4.2 17:42:51 10° WNW 17:48:28 70° SSW 17:52:51 14° ESE
CENTAUR R/B 4.1 17:43:19 10° N 17:49:26 23° NE 17:51:51 21° ENE
NOSS 2-2 (E) 3.8 17:47:25 10° S 17:51:03 40° ESE 17:52:27 29° ENE
MOS 1 4.2 17:48:11 10° SSE 17:53:49 69° ENE 17:59:27 10° N
Thor Agena Rocket 4.5 17:52:56 25° ENE 17:54:10 27° E 17:58:35 10° SSE
Intelsat 5-3 Rocket 4.4 17:52:25 10° SW 17:56:59 20° S 17:59:30 11° SE
Cosmos 1980 Rocket 2.2 17:51:32 10° S 17:57:07 65° ESE 18:01:24 18° NNE
NOSS 2-2 (C) 3.8 17:54:07 10° S 17:57:45 40° ESE 17:58:37 35° E
MONITOR-E 3.9 17:57:06 10° SSE 18:00:07 84° ENE 18:03:10 10° N
Cosmos 1269 Rocket 4.0 17:57:37 10° NNW 18:02:57 89° ENE 18:08:14 10° SSE
Shenzhou-11 Module 4.0 18:01:10 10° S 18:02:47 17° SSE 18:02:47 17° SSE
COSMO-SKYMED 1 3.2 18:00:44 10° N 18:04:59 55° WNW 18:09:12 10° SSW
Cosmos 1184 Rocket 3.7 18:02:07 10° SSE 18:04:15 32° SE 18:04:15 32° SE
SJ 16-02 3.4 18:02:40 10° SW 18:06:19 25° WNW 18:09:59 10° NNW
Lacrosse 5 rocket 3.1 18:07:04 10° SSE 18:09:08 19° SE 18:09:08 19° SE
Cosmos 2297 Rocket 2.9 18:05:17 10° NNW 18:10:49 57° WSW 18:16:19 10° S
Atlas Centaur 2 3.2 18:08:31 10° W 18:13:14 32° SSW 18:16:05 16° SSE
Cosmos 1244 Rocket 4.3 18:10:43 10° N 18:16:50 68° E 18:22:59 10° SSE
RESURS DK-1 2.2 18:15:38 10° SSW 18:19:44 78° ESE 18:20:16 64° NE
Okean 1-7 Rocket 4.1 18:24:25 10° SSW 18:28:42 58° W 18:31:46 19° N
Cosmos 1025 Rocket 4.3 18:25:45 10° SSW 18:29:47 39° W 18:33:49 10° N
ALOS 2.9 18:26:41 10° S 18:31:15 57° W 18:35:51 10° NNW
BREEZE-M R/B 4.0 18:29:04 10° S 18:31:29 30° SE 18:31:29 30° SE
Cosmos 1553 Rocket 3.9 18:26:08 10° S 18:32:31 77° E 18:37:23 18° N
NOAA 12 4.4 18:27:45 10° S 18:32:59 65° W 18:38:12 10° NNW
Cosmos 1417 Rocket 4.4 18:29:35 10° S 18:35:44 86° W 18:41:34 12° N
SL-08 R/B 4.3 18:32:18 10° N 18:38:33 66° E 18:44:39 10° SSE
SL-16 R/B 2.8 18:33:11 10° S 18:37:22 40° SE 18:37:22 40° SE
Hubble Space Telescope 3.1 18:37:59 10° WSW 18:40:45 17° SSW 18:41:56 16° S
DELTA 2 R/B (1) 3.6 18:36:02 10° WNW 18:41:33 59° NNE 18:41:34 59° NNE
FENGYUN 3A 4.5 18:37:48 10° S 18:43:01 50° W 18:48:13 10° NNW
Cosmos 2322 Rocket 2.8 18:38:13 10° S 18:42:07 40° SSE 18:42:07 40° SSE
GOES 2 Rocket 4.4 18:41:36 10° WSW 18:45:48 36° S 18:46:31 34° S
NOSS 3-2 (A) 4.4 18:38:55 10° NW 18:46:36 64° WSW 18:54:47 10° SSE
Cosmos 2344 3.5 18:42:16 10° SSW 18:49:50 58° ESE 18:50:39 55° E
SL-8 R/B 4.0 18:46:59 10° SW 18:51:14 66° W 18:51:14 66° W
OAO 1 Rocket 4.5 18:47:13 10° W 18:52:08 75° WNW 18:52:08 75° WNW
NOSS 3-2 (C) 4.2 18:46:37 10° NW 18:54:24 75° WSW 19:02:43 10° SSE
CENTAUR R/B 3.4 19:32:54 10° NNW 19:39:08 59° NW 19:39:08 59° NW
